EHI
0 0 0 0 0 0 0 0 0 0 0 0 0 0 0 0 0 0 0 0 0 0 0 0 0 0 0 0 0 0 0 0 0 0 0 0 0 0
0 0 0 0 0 0 0 0 0 0 0 0 0 0 0 0 0 0 0 0 0 0 0 0 0 0 0 0 0 0 0 0 0 0 0 0 0 0
0 0 0 0 0 0 0 0 0 0 0 0 0 0 0 0 0 0 0 0 0 0 0 0 0 0 0 0 0 0 0 0 0 0 0 0 0 0
0 0 0 0 0 0 0 0 0 0 0 0 0 0 0 0 0 0 0 0 0 0 0 0 0 0 0 0 0 0 0 0 0 0 0 0 0 0
0 0 0 0 0 0 0 0 0 0 0 0 0 0 0 0 0 0 0 0 0 0 0 0 0 0 0 0 0 0 0 0 0 0 0 0 0 0
0 0 0 0 0 0 0 0 0 0 0 0 0 0 0 0 0 0 0 0 0 0 0 0 0 0 0 0 0 0 0 0 0 0 0 0 0 0
0 0 0 0 0 0 0 0 0 0 0 0 0 0 0 0 0 0 0 0 0 0 0 0 0 0 0 0 0 0 0 0 0 0 0 0 0 0
0 0 0 0 0 0 0 0 0 0 0 0 0 0 0 0 0 0 0 0 0 0 0 0 0 0 0 0 0 0 0 0 0 0 0 0 0 0
0 0 0 0 0 0 0 0 0 0 0 0 0 0 0 0 0 0 0 0 0 0 0 0 0 0 0 0 0 0 0 0 0 0 0 0 0 0
0 0 0 0 0 0 0 0 0 0 0 0 0 0 0 0 0 0 0 0 0 0 0 0 0 0 0 0 0 0 0 0 0 0 0 0 0 0
0 0 0 0 0 0 0 0 0 0 0 0 0 0 0 0 0 0 0 0 0 0 0 0 0 0 0 0 0 0 0 0 0 0 0 0 0 0
0 0 0 0 0 0 0 0 0 0 0 0 0 0 0 0 0 0 0 0 0 0 0 0 0 0 0 0 0 0 0 0 0 0 0 0 0 0
0 0 0 0 0 0 0 0 0 0 0 0 0 0 0 0 0 0 0 0 0 0 0 0 0 0 0 0 0 0 0 0 0 0 0 0 0 0
0 0 0 0 0 0 0 0 0 0 0 0 0 0 0 0 0 0 0 0 0 0 0 0 0 0 0 0 0 0 0 0 0 0 0 0 0 0
0 0 0 0 0 0 0 0 0 0 0 0 0 0 0 0 0 0 0 0 0 0 0 0 0 0 0 0 0 0 0 0 0 0 0 0 0 0
0 0 0 0 0 0 0 0 0 0 0 0 0 0 0 0 0 0 0 0 0 0 0 0 0 0 0 0 0 0 0 0 0 0 0 0 0 0
0 0 0 0 0 0 0 0 0 0 0 0 0 0 0 0 0 0 0 0 0 0 0 0 0 0 0 0 0 0 0 0 0 0 0 0 0 0
0 0 0 0 0 0 0 0 0 0 0 0 0 0 0 0 0 0 0 0 0 0 0 0 0 0 0 0 0 0 0 0 0 0 0 0 0 0
0 0 0 0 0 0 0 0 0 0 0 0 0 0 0 0 0 0 0 0 0 0 0 0 0 0 0 0 0 0 0 0 0 0 0 0 0 0
0 0 0 0 0 0 0 0 0 0 0 0 0 0 0 0 0 0 0 0 0 0 0 0 0 0 0 0 0 0 0 0 0 0 0 0 0 0
0 0 0 0 0 0 0 0 0 0 0 0 0 0 0 0 0 0 0 0 0 0 0 0 0 0 0 0 0 0 0 0 0 0 0 0 0 0
0 0 0 0 0 0 0 0 0 0 0 0 0 0 0 0 0 0 0 0 0 0 0 0 0 0 0 0 0 0 0 0 0 0 0 0 0 0
0 0 0 0 0 0 0 0 0 0 0 0 0 0 0 0 0 0 0 0 0 0 0 0 0 0 0 0 0 0 0 0 0 0 0 0 0 0
Wind_Speed
3 3 2 2 2 2 2 3 3 2 3 2 2 2 2 2 4 3 3 6 7 7 7 7 7 7 8 8 8 8 8 8 9 9 10 11 11 12
3 3 3 2 2 2 2 2 2 2 3 2 2 2 2 3 5 3 3 7 8 8 8 7 7 7 8 8 8 8 8 8 9 10 11 11 12 12
3 3 4 3 2 2 2 2 1 2 3 3 2 2 2 3 3 3 3 3 4 8 8 8 7 7 7 7 8 8 8 9 9 10 10 11 12 12
4 4 4 3 3 2 2 2 2 2 2 3 2 2 3 3 3 3 3 3 3 7 8 7 7 7 7 7 7 7 7 8 9 10 11 11 12 13
5 5 4 4 4 3 3 2 2 2 2 2 2 2 2 2 2 3 3 3 4 5 6 7 7 7 7 7 7 7 7 8 8 9 10 11 12 12
4 4 5 5 5 4 3 3 2 2 1 2 2 2 2 1 1 2 3 3 3 4 5 5 6 7 7 7 7 7 8 8 9 10 10 10 10 11
4 4 5 5 5 5 3 3 3 2 2 2 2 1 1 1 2 2 3 3 4 2 3 3 3 3 3 5 6 7 8 8 9 10 10 10 10 11
4 3 4 4 5 6 6 5 5 4 3 3 2 3 3 2 2 2 2 2 3 2 2 4 2 3 3 3 6 8 8 8 9 10 10 10 10 11
4 3 3 3 4 3 4 5 5 5 5 4 4 5 4 4 3 3 3 3 4 3 2 4 3 3 3 4 8 7 8 9 9 10 10 10 11 11
4 4 4 4 4 3 3 3 3 4 4 3 4 5 4 3 3 3 3 3 3 2 1 3 3 3 4 4 7 7 8 9 9 10 10 11 11 11
4 4 4 4 5 4 3 3 2 3 3 4 4 4 4 4 2 1 1 1 3 2 1 1 2 3 4 3 5 8 9 9 9 10 11 11 11 10
3 3 5 5 5 5 4 4 4 3 2 1 2 2 2 3 3 2 2 2 2 3 1 1 1 2 3 3 3 3 5 8 10 11 12 12 11 6
3 3 3 5 5 5 4 4 4 2 2 2 1 1 1 1 1 2 2 3 3 3 2 1 1 1 2 4 3 3 3 3 4 6 9 11 11 8
3 3 3 4 4 4 4 3 3 1 1 1 1 1 1 2 2 2 2 2 3 4 3 2 2 2 2 3 4 3 3 3 3 4 4 8 9 11
3 4 4 3 3 3 4 4 3 2 2 2 2 2 2 2 1 1 1 1 2 2 2 2 2 2 2 3 4 3 4 3 3 4 4 4 4 5
1 2 2 2 1 2 2 2 2 2 2 2 2 1 1 1 1 1 1 1 1 2 2 2 2 2 2 4 3 4 3 4 4 4 5 4 4 3
2 1 1 1 1 1 1 1 1 1 1 1 1 1 1 1 1 1 1 1 1 1 2 2 2 2 3 3 3 3 3 4 4 4 5 5 4 4
3 2 2 2 2 2 2 2 2 2 2 2 2 2 2 2 1 1 1 1 1 1 2 2 2 2 2 2 4 3 3 3 4 4 4 4 6 5
2 2 2 3 2 2 2 2 2 2 2 2 2 2 2 2 1 1 1 1 2 2 2 1 1 1 2 3 3 2 2 3 4 4 3 3 5 6
2 2 2 2 2 3 3 2 2 2 2 2 2 2 2 2 2 2 2 2 2 2 2 1 1 2 2 3 3 3 4 3 3 4 4 4 5 7
2 2 2 2 2 2 2 2 2 2 2 2 2 2 2 2 2 2 2 3 2 2 2 2 3 3 2 1 2 3 3 4 5 3 4 4 4 4
2 2 2 2 2 2 2 2 2 2 2 2 2 2 2 2 2 3 2 2 2 2 2 2 2 1 1 2 3 4 5 5 5 7 6 5 3 3
3 2 2 2 2 2 2 3 3 3 3 3 2 2 2 2 2 2 2 2 2 2 1 1 1 1 1 2 3 3 5 5 4 4 4 6 7 8
Wind_Direction
193 194 201 206 198 189 176 169 173 230 262 254 274 289 306 306 313 321 312 314 323 324 326 325 321 320 322 321 318 315 310 309 311 312 313 314 312 312
193 191 205 203 197 194 180 183 185 196 242 253 254 281 297 307 308 316 303 314 316 319 321 323 323 318 322 324 322 321 319 316 316 316 317 317 317 316
199 200 212 198 194 207 187 179 191 188 239 274 271 284 282 292 309 311 302 302 307 314 314 317 321 324 323 326 325 321 318 317 318 319 320 322 322 321
206 205 214 203 203 209 203 198 204 204 212 262 280 274 271 278 296 300 311 315 306 311 314 318 320 322 325 327 328 332 330 327 324 324 322 322 321 321
207 206 211 204 211 208 209 212 212 221 215 232 262 269 279 290 313 308 308 310 308 311 314 315 315 317 319 323 325 328 328 327 323 322 322 321 319 319
214 210 210 209 210 205 208 213 209 210 211 223 252 269 275 288 300 311 317 322 315 317 318 314 311 316 316 318 322 326 329 329 325 322 320 319 318 319
220 221 219 217 219 215 210 204 198 203 208 223 240 261 269 274 273 279 298 314 307 303 316 315 314 315 317 314 316 321 321 320 321 321 321 320 318 318
215 224 228 224 229 231 232 224 210 204 208 213 230 241 246 242 259 266 286 313 299 309 325 308 315 303 299 292 306 315 318 320 322 323 323 321 320 318
207 210 227 240 230 216 233 239 236 233 221 211 222 233 234 228 230 255 262 266 268 286 312 297 311 302 303 305 307 312 319 322 324 324 325 325 322 319
213 213 219 229 227 210 208 223 229 234 240 230 222 232 233 226 221 232 245 277 282 281 275 280 302 301 307 308 315 323 326 326 327 327 327 326 323 320
224 222 218 220 229 224 209 218 238 259 268 262 259 257 254 249 231 180 236 292 292 284 257 264 288 305 304 301 312 325 328 327 328 328 327 326 326 326
224 229 231 225 229 226 209 203 225 242 234 264 276 276 265 249 244 225 206 231 272 274 248 258 287 321 309 296 305 320 327 327 330 329 327 327 327 325
216 226 230 233 242 237 218 213 227 226 208 211 229 251 275 263 256 252 230 215 229 250 238 226 259 276 275 296 303 308 315 316 320 321 324 326 329 329
212 219 228 235 241 243 231 227 226 210 184 190 220 243 247 248 256 259 256 247 239 238 233 222 233 244 269 287 292 307 314 310 314 314 316 322 325 325
218 224 229 233 235 232 227 223 210 194 189 204 228 242 241 239 244 266 281 279 289 280 250 237 228 244 246 262 280 297 311 310 311 311 313 315 313 319
220 212 216 217 221 220 216 215 212 206 204 209 219 227 217 221 227 228 239 257 300 304 297 274 247 235 251 261 265 283 291 298 314 316 312 307 307 306
180 147 143 158 200 214 223 220 205 202 226 218 203 212 226 238 241 229 214 216 242 264 299 319 309 280 252 253 267 273 286 292 296 313 316 314 310 309
160 168 185 200 212 216 220 231 227 222 218 209 212 217 229 236 238 237 231 228 248 259 272 288 318 330 319 281 243 266 284 290 302 309 309 308 309 312
180 191 203 212 220 221 221 224 232 232 215 215 225 224 228 228 229 236 236 247 255 256 262 263 285 305 305 302 299 263 278 300 307 304 298 291 294 304
198 199 211 220 225 225 223 226 231 220 212 217 223 222 213 216 228 232 228 239 249 254 262 256 243 242 252 270 282 290 286 281 289 298 302 297 289 294
215 213 217 218 226 229 226 225 223 219 216 213 219 217 214 217 227 227 228 242 246 236 245 259 262 270 267 286 289 293 294 291 287 283 297 304 307 313
222 225 223 221 220 226 221 218 218 221 217 215 218 215 215 218 223 220 221 229 239 241 252 269 281 287 269 269 280 290 300 308 307 300 286 274 284 299
224 227 225 219 220 222 221 221 218 222 220 216 212 212 211 217 220 221 226 232 236 236 246 264 287 287 279 271 280 289 297 306 313 320 310 307 301 296